FW8647 Weather Reports


time (UTC)temp
F
wind
direction
speed
knots
gust
knots
rain 1hr
in
rain 24hr
in
rain mn
in
humidity
%
barometer
mb
20260505083814 58 202 2.6 4.3 0.00 0.00 0.00 81 1002.9
20260505082814 57 202 2.6 5.2 0.00 0.00 0.00 82 1002.7
20260505081813 57 199 2.6 4.3 0.00 0.00 0.00 82 1002.7
20260505080812 57 202 2.6 2.6 0.00 0.00 0.00 82 1002.6
20260505075809 58 203 3.5 5.2 0.00 0.00 0.00 81 1002.6
20260505074804 58 200 0.0 0.9 0.00 0.00 0.00 81 1002.5
20260505073804 58 197 4.3 7.0 0.00 0.00 0.00 80 1003.1
20260505072805 59 200 4.3 7.0 0.00 0.00 0.00 80 1003.0
20260505071802 59 202 3.5 6.1 0.00 0.00 0.00 80 1002.8
20260505070757 59 204 2.6 4.3 0.00 0.00 0.00 80 1003.1
20260505065754 59 198 5.2 9.6 0.00 0.00 0.00 80 1003.1
20260505064749 59 201 4.3 7.8 0.00 0.00 0.00 80 1003.2
20260505063744 58 201 4.3 7.0 0.00 0.00 0.00 81 1003.5
20260505062742 59 203 6.1 8.7 0.00 0.00 0.00 81 1003.5
20260505061742 59 202 4.3 8.7 0.00 0.00 0.00 79 1003.6
20260505060737 59 191 4.3 5.2 0.00 0.00 0.00 79 1003.3
20260505055735 59 200 6.1 9.6 0.00 0.00 0.00 78 1003.7
20260505054735 60 195 5.2 6.1 0.00 0.00 0.00 77 1003.8
20260505053732 59 196 4.3 7.0 0.00 0.00 0.00 78 1004.1
20260505052731 59 187 4.3 7.0 0.00 0.00 0.00 78 1004.2
20260505051730 59 204 4.3 6.1 0.00 0.00 0.00 79 1004.5
20260505050726 59 186 3.5 6.1 0.00 0.00 0.00 80 1004.3
20260505041723 60 188 4.3 5.2 0.00 0.00 0.00 77 1004.0
20260505040718 59 190 3.5 4.3 0.00 0.00 0.00 77 1003.8
20260505035717 59 187 4.3 5.2 0.00 0.02 0.02 78 1004.0
20260505034715 59 181 4.3 8.7 0.12 0.02 0.02 78 1004.2
20260505033714 59 189 3.5 4.3 0.12 0.02 0.02 79 1004.7
20260505032710 0 0.0 0.0 0.00 0.00 0.00 1004.8
20260505031710 0 0.0 0.0 0.00 0.00 0.00 1005.1
20260505030708 0 0.0 0.0 0.00 0.00 0.00 1004.6
20260505025706 0 0.0 0.0 0.00 0.00 0.00 1005.4
20260505024702 0 0.0 0.0 0.00 0.00 0.00 1005.2
20260505023657 60 270 4.3 7.0 0.00 0.00 0.00 79 1005.2
20260505022657 60 204 6.1 7.8 0.00 0.00 0.00 77 1004.9
20260505021656 61 188 7.8 13.0 0.00 0.00 0.00 75 1004.9
20260505020655 61 173 4.3 5.2 0.00 0.00 0.00 74 1004.6
20260505015654 61 174 4.3 6.1 0.00 0.00 0.00 74 1004.2
20260505014653 61 191 4.3 6.1 0.00 0.00 0.00 73 1004.4
20260505013653 61 177 4.3 6.1 0.00 0.00 0.00 72 1004.4
20260505012649 62 187 4.3 7.0 0.00 0.00 0.00 69 1004.2
20260505011647 63 140 4.3 7.0 0.00 0.00 0.00 64 1004.3
20260505010645 63 198 4.3 7.8 0.00 0.00 0.00 63 1004.2
20260505005643 64 170 4.3 6.1 0.00 0.00 0.00 60 1004.2
20260505004638 64 157 4.3 7.8 0.00 0.00 0.00 59 1004.2
20260505003637 0 0.0 0.0 0.00 0.00 0.00 1004.2
20260505002637 64 189 3.5 6.1 0.00 0.00 0.00 57 1004.1
20260505001632 65 217 3.5 5.2 0.00 0.00 0.00 56 1004.2
20260505000632 65 217 3.5 5.2 0.00 0.00 0.00 56 1004.1
20260504235632 65 204 4.3 6.1 0.00 0.00 0.00 55 1004.1
20260504234632 66 172 4.3 8.7 0.00 0.00 0.00 54 1004.1
20260504233630 66 204 4.3 5.2 0.00 0.00 0.00 53 1004.5
20260504232631 66 183 4.3 6.1 0.00 0.00 0.00 53 1004.5
20260504231630 66 193 7.0 9.6 0.00 0.00 0.00 51 1004.5
20260504230628 66 200 5.2 7.0 0.00 0.00 0.00 50 1004.2
20260504225625 67 187 6.1 8.7 0.00 0.00 0.00 49 1004.8
20260504224623 67 219 6.1 9.6 0.00 0.00 0.00 48 1004.8
20260504223623 67 202 6.1 9.6 0.00 0.00 0.00 47 1004.8
20260504222622 67 209 6.1 9.6 0.00 0.00 0.00 48 1004.9
20260504221622 67 204 8.7 11.3 0.00 0.00 0.00 47 1005.1
20260504220621 68 215 9.6 11.3 0.00 0.00 0.00 47 1005.1
20260504215620 67 183 11.3 15.6 0.00 0.00 0.00 47 1004.9
20260504214620 68 205 9.6 17.4 0.00 0.00 0.00 49 1004.9
20260504213619 68 188 12.2 19.1 0.00 0.00 0.00 48 1005.0
20260504212617 68 206 12.2 14.8 0.00 0.00 0.00 47 1005.1
20260504211612 68 186 13.0 19.1 0.00 0.00 0.00 48 1005.0
20260504210612 68 158 10.4 13.9 0.00 0.00 0.00 47 1005.1
20260504205612 68 188 15.6 19.1 0.00 0.00 0.00 49 1005.0
20260504204607 67 129 13.9 25.2 0.00 0.00 0.00 49 1005.0
20260504203604 67 225 14.8 20.0 0.00 0.00 0.00 49 1004.8
20260504202602 66 180 13.9 17.4 0.00 0.00 0.00 50 1005.4
20260504201602 66 197 14.8 20.0 0.00 0.00 0.00 50 1005.0
20260504200602 66 218 18.2 21.7 0.00 0.00 0.00 50 1004.9
20260504195600 66 209 13.9 20.0 0.00 0.00 0.00 51 1005.3
20260504194559 66 209 19.1 21.7 0.00 0.00 0.00 52 1005.4
20260504193557 65 214 13.0 15.6 0.00 0.00 0.00 52 1005.8
20260504192554 65 209 21.7 26.1 0.00 0.00 0.00 54 1005.7
20260504191549 65 222 24.3 27.8 0.00 0.00 0.00 54 1005.4
20260504190548 65 193 23.5 26.1 0.00 0.00 0.00 54 1005.7
20260504185547 65 183 13.0 15.6 0.00 0.00 0.00 52 1006.1
20260504184545 64 200 18.2 22.6 0.00 0.00 0.00 56 1005.7
20260504183543 64 190 18.2 20.9 0.00 0.00 0.00 57 1006.3
20260504182538 63 150 17.4 20.0 0.00 0.00 0.00 58 1006.3
20260504181538 63 206 17.4 26.9 0.00 0.00 0.00 59 1006.3
20260504180535 63 171 19.1 21.7 0.00 0.00 0.00 60 1006.4
20260504175530 62 196 20.0 22.6 0.00 0.00 0.00 61 1006.4
20260504174525 62 213 16.5 19.1 0.00 0.00 0.00 62 1006.5
20260504173524 62 212 20.0 22.6 0.00 0.00 0.00 60 1006.3
20260504172524 63 191 15.6 19.1 0.00 0.00 0.00 60 1006.8
20260504171523 63 191 18.2 20.9 0.00 0.00 0.00 60 1006.8
20260504170521 63 186 13.0 18.2 0.00 0.00 0.00 60 1007.2
20260504150501 58 218 13.0 14.8 0.00 0.00 0.00 69 1008.1
20260504140452 55 177 13.0 15.6 0.00 0.00 0.00 72 1008.3
20260504130435 52 297 8.7 9.6 0.00 0.00 0.00 76 1008.6
20260504110409 46 199 5.2 9.6 0.00 0.00 0.00 82 1008.9
20260504100354 46 201 5.2 6.1 0.00 0.00 0.00 81 1009.0